Retour au catalogue

FENGYUN 1C DEB

ActifPO
NORAD 30288·DEBRIS·🇨🇳 China

Lancé May 10, 1999 depuis Taiyuan Satellite Launch Center

Loading…

Prochains Passages (prochaines 24 heures)

TLE

FraisSource: Space-Track

Époque: Sep 14, 2026, 06:32 UTC

1 30288U 99025YZ  26257.27287779  .00002651  00000-0  94723-3 0  9999
2 30288  99.3949   7.3957 0020924 249.3129 139.6101 14.34945633 15148

Suivez FENGYUN 1C DEB en temps réel avec AllMySat

Download on the App Store